CAPE
28 3 0 12 0 66 98 15 49 27 25 1 4 0 0 0 0 0 0 0 0 0 0 0 0 0 0 0 0 0 0 0 0 0 0 0 0 0 0 0 0 0 0 0 0
58 5 0 64 9 2 151 24 27 49 42 5 0 0 0 0 0 0 0 0 0 0 0 0 0 0 0 0 0 0 0 0 0 0 0 0 0 0 0 0 0 0 0 0 0
111 38 4 28 1 7 143 70 14 53 58 31 1 0 0 0 0 0 0 0 0 0 0 0 0 0 0 0 0 0 0 0 0 0 0 0 0 0 0 0 0 0 0 1 0
41 52 22 30 39 22 1 72 14 13 106 49 0 0 0 0 0 0 0 0 0 0 0 0 0 0 0 0 0 0 0 0 0 0 0 0 0 0 0 0 0 0 0 0 1
0 58 46 15 65 8 0 84 20 33 87 59 0 0 0 0 0 0 0 0 0 0 0 0 0 0 0 0 0 0 0 0 0 0 0 0 0 0 0 0 0 0 0 0 0
38 6 40 66 44 38 1 70 31 32 62 62 4 0 0 0 0 0 0 0 0 0 0 0 0 0 0 0 0 0 0 0 0 0 0 0 0 0 0 0 0 0 0 0 0
57 37 17 60 71 31 0 89 40 28 64 52 4 0 1 0 0 0 0 0 0 0 0 0 0 0 0 0 0 0 0 0 0 0 0 0 0 0 0 0 0 0 0 0 0
63 23 2 6 45 42 2 75 65 34 47 69 0 0 3 0 0 0 0 0 0 0 0 0 0 0 0 0 0 0 0 0 0 0 0 0 0 0 0 0 0 0 0 0 0
38 9 1 28 14 25 11 78 55 34 109 112 29 1 0 0 0 0 0 0 0 0 0 0 0 0 0 0 0 0 0 0 0 0 0 0 0 0 0 0 0 0 0 0 0
11 0 0 19 1 9 74 38 39 80 191 154 10 2 0 0 0 0 0 0 0 0 0 0 0 0 0 0 0 0 0 0 0 0 0 0 0 0 0 0 0 0 0 0 0
0 0 0 66 38 30 18 44 39 45 153 32 0 0 0 0 0 0 0 11 0 0 0 0 0 0 0 0 0 0 0 0 0 0 0 0 0 0 0 0 0 0 0 0 0
1 2 0 0 23 25 36 16 18 2 32 1 0 0 0 0 1 8 1 1 4 1 0 0 0 0 0 0 0 0 0 0 0 0 0 0 0 0 0 0 0 0 0 0 0
0 1 0 0 9 24 8 12 28 0 2 1 0 0 0 0 1 4 30 16 0 3 0 0 0 0 0 0 0 0 0 0 0 0 0 0 0 0 0 0 0 0 0 0 0
0 1 0 0 24 33 16 17 0 0 0 1 1 0 0 0 0 0 10 3 8 3 0 0 0 0 0 0 0 0 0 0 0 0 0 0 0 0 0 0 0 0 0 0 0
0 8 0 4 15 21 24 9 0 9 2 1 4 0 0 0 0 5 0 0 0 0 0 0 0 0 0 0 0 0 0 0 0 0 0 0 0 0 0 0 0 0 0 0 0
6 17 3 1 20 27 21 0 0 0 0 1 3 0 0 0 0 0 0 0 0 0 0 0 0 0 0 0 0 0 0 0 0 0 0 0 0 0 0 0 0 0 0 0 0
3 6 35 10 31 27 0 1 0 0 0 0 1 2 1 0 0 0 0 1 11 2 0 0 0 0 0 0 0 0 3 0 0 0 0 0 0 0 0 0 0 0 0 0 0
0 10 3 3 14 1 0 0 0 0 1 0 0 0 0 0 0 0 0 0 0 0 0 0 0 0 0 0 0 0 0 0 0 0 0 0 0 0 0 0 0 0 0 0 0
0 13 0 0 2 0 6 0 0 1 0 0 0 0 0 0 0 0 0 0 0 0 0 1 0 0 0 0 0 0 0 0 0 0 0 0 0 0 0 0 0 0 0 0 0
1 4 0 0 4 27 2 0 0 0 0 0 0 0 0 0 0 0 0 0 0 0 0 0 0 0 0 0 0 0 0 0 0 0 0 0 0 0 0 0 0 0 0 0 0
1 0 0 0 3 5 0 0 0 0 0 0 0 0 0 0 0 0 0 0 0 0 0 0 0 0 0 0 0 0 0 0 0 0 0 0 0 0 0 0 0 0 0 0 0
0 0 0 14 7 2 2 0 0 0 0 0 0 0 0 0 0 0 0 0 0 0 0 0 0 0 0 0 0 0 0 0 0 0 0 0 0 0 0 0 0 0 0 0 0
0 0 0 2 0 1 1 0 0 0 0 0 0 0 0 0 0 0 0 0 0 0 0 0 0 0 0 0 0 0 0 0 0 0 0 0 0 0 0 0 0 0 0 0 0
0 0 0 0 0 0 1 1 0 0 0 0 0 0 0 0 0 0 0 0 0 0 0 0 0 0 0 0 0 0 0 0 0 0 0 0 0 0 0 0 0 0 0 0 0
0 0 0 0 1 0 0 0 0 0 0 0 0 0 0 0 0 0 0 0 0 0 0 0 0 0 0 0 0 0 0 0 0 0 0 0 0 0 0 0 0 0 0 0 0
0 0 0 0 2 1 0 0 0 0 0 0 0 0 0 0 0 0 0 0 0 0 0 0 0 0 0 0 0 0 0 0 0 0 0 0 0 0 0 0 0 0 0 0 0
1 0 0 0 1 0 0 0 0 0 0 0 0 0 0 0 0 0 0 0 0 0 0 0 0 0 0 0 0 0 0 0 0 0 0 0 0 0 0 0 0 0 0 0 0
CIN
-1 0 0 -35 0 -3 -1 -26 -42 -44 -50 0 -21 0 0 0 0 0 0 0 0 0 0 0 0 0 0 0 0 0 0 0 0 0 0 0 0 0 0 0 0 0 0 0 0
-3 0 0 0 -33 -5 0 -7 -21 -15 -5 0 0 0 0 0 0 0 0 0 0 0 0 0 0 0 0 0 0 0 0 0 0 0 0 0 0 0 0 0 0 0 0 0 0
-2 0 -14 0 -44 -9 -3 -3 -27 -10 -8 -40 0 0 0 0 0 0 0 0 0 0 0 0 0 0 0 0 0 0 0 0 0 0 0 0 0 0 0 0 0 0 0 0 0
-13 -1 -13 -11 -21 -13 -1 -3 -20 -11 -10 -41 0 0 0 0 0 0 0 0 0 0 0 0 0 0 0 0 0 0 0 0 0 0 0 0 0 0 0 0 0 0 0 0 0
-2 -5 -5 -26 -13 -51 -10 0 -18 -17 -4 -40 0 0 0 0 0 0 0 0 0 0 0 0 0 0 0 0 0 0 0 0 0 0 0 0 0 0 0 0 0 0 0 0 0
-27 -14 -2 -13 -13 -9 -34 0 -13 -15 -6 -39 -46 0 0 0 0 0 0 0 0 0 0 0 0 0 0 0 0 0 0 0 0 0 0 0 0 0 0 0 0 0 0 0 0
-9 -13 -22 0 0 -4 0 0 -3 -10 -3 -38 -49 0 0 0 0 0 0 0 0 0 0 0 0 0 0 0 0 0 0 0 0 0 0 0 0 0 0 0 0 0 0 0 0
-9 -19 -15 -20 -4 -4 -6 0 -1 -10 -10 -30 0 -5 -2 0 0 0 0 0 0 0 0 0 0 0 0 0 0 0 0 0 0 0 0 0 0 0 0 0 0 0 0 0 0
-10 -33 -12 -28 -40 -25 -12 0 -1 -11 0 -10 -9 -5 0 0 0 0 0 0 0 0 0 0 0 0 0 0 0 0 0 0 0 0 0 0 0 0 0 0 0 0 0 0 0
-10 0 0 -19 -75 -20 0 0 -1 -2 0 -2 -8 -52 0 0 0 0 0 0 0 0 0 0 0 0 0 0 0 0 0 0 0 0 0 0 0 0 0 0 0 0 0 0 0
0 0 0 -5 -11 -12 0 0 0 0 0 -4 0 0 0 0 0 0 -71 -6 0 0 0 0 0 0 0 0 0 0 0 0 0 0 0 0 0 0 0 0 0 0 0 0 0
0 0 0 0 -5 0 0 -2 -2 -3 0 0 0 0 0 0 -3 -30 -21 0 -1 0 0 0 0 0 0 0 0 0 0 0 0 0 0 0 0 0 0 0 0 0 0 0 0
0 0 0 0 -15 -1 -6 -14 -13 0 -9 0 0 0 0 0 0 -10 -1 -4 0 0 0 0 0 0 0 0 0 0 -1 0 0 0 0 0 0 0 0 0 0 0 0 0 0
0 0 0 0 -1 0 0 -20 -1 0 0 0 0 0 0 0 -1 0 -4 -21 -2 -1 0 -1 0 0 0 0 -6 0 0 0 0 0 0 0 0 0 0 0 0 0 0 0 0
0 -2 -18 0 -1 -1 -13 -24 0 -6 -1 0 0 0 0 0 0 -5 0 -1 0 0 -9 0 0 0 0 0 0 0 0 0 0 0 0 0 0 0 0 0 0 0 0 0 0
-2 -1 0 -2 -1 -8 -18 0 -6 0 0 0 0 0 0 0 0 0 0 0 0 0 0 0 0 0 0 0 0 0 0 0 0 0 0 0 0 0 0 0 0 0 0 0 0
-8 -3 -1 -10 -1 -9 0 -7 0 -4 0 0 0 0 0 0 0 0 0 -11 -16 -5 0 0 0 0 0 0 0 0 0 0 0 0 0 0 0 0 0 0 0 0 0 0 0
0 -12 -12 -9 -3 0 0 0 0 0 0 0 0 0 0 0 0 0 0 0 0 0 0 0 0 0 0 0 0 0 0 0 0 0 0 0 0 0 0 0 0 0 0 0 0
0 -2 0 0 0 -9 0 0 0 0 0 0 0 0 0 0 0 0 0 0 0 0 0 0 0 0 0 0 0 0 0 0 0 0 0 0 0 0 0 0 0 0 0 0 0
-1 -1 0 0 -2 -1 0 0 0 0 0 0 0 0 0 0 0 -1 0 0 0 0 0 0 0 0 0 0 0 0 0 0 0 0 0 0 0 0 0 0 0 0 0 0 0
-3 0 0 0 0 0 0 0 0 0 0 0 0 0 0 0 0 0 0 0 0 0 0 0 0 0 0 0 0 0 0 0 0 0 0 0 0 0 0 0 0 0 0 0 0
0 0 0 0 -1 0 0 0 0 0 0 0 0 0 0 0 0 0 0 0 0 0 0 0 0 0 0 0 0 0 0 0 0 0 0 0 0 0 0 0 0 0 0 0 0
0 0 0 0 0 0 0 0 0 0 0 0 0 0 0 0 0 0 0 0 0 0 0 0 0 0 0 0 0 0 0 0 0 0 0 0 0 0 0 0 0 0 0 0 0
0 0 0 0 -1 0 0 0 0 0 0 0 0 0 0 0 0 0 0 0 0 0 0 0 0 0 0 0 0 0 0 0 0 0 0 0 0 0 0 0 0 0 0 0 0
0 0 0 0 0 0 0 0 0 0 0 0 0 0 0 0 0 0 0 0 0 0 0 0 0 0 0 0 0 0 0 0 0 0 0 0 0 0 0 0 0 0 0 0 0
0 0 0 0 0 0 0 0 0 0 0 0 0 0 0 0 0 0 0 0 0 0 0 0 0 0 0 0 0 0 0 0 0 0 0 0 0 0 0 0 0 0 0 0 0
0 0 0 0 0 0 0 0 0 0 0 0 0 0 0 0 0 0 0 0 0 0 0 0 0 0 0 0 0 0 0 0 0 0 0 0 0 0 0 0 0 0 0 0 0
Wind_Speed
50 50 48 50 46 49 46 42 38 36 34 32 31 27 25 25 24 27 33 26 24 20 21 22 21 18 15 18 18 12 22 24 20 20 19 13 15 14 12 9 10 9 11 13 7
51 50 51 54 50 47 46 43 39 34 35 32 30 26 24 23 27 35 27 24 23 17 21 23 24 21 20 20 19 16 21 22 19 22 20 17 16 10 13 10 12 10 12 7 9
50 53 51 48 48 50 49 43 40 35 34 31 28 26 22 21 32 36 32 25 22 21 20 21 20 21 23 21 19 17 20 17 21 22 23 21 18 11 11 15 12 5 5 9 10
42 52 51 52 52 45 47 46 38 37 30 29 27 24 21 23 40 26 27 23 21 21 20 20 22 24 26 21 22 17 16 14 23 22 22 22 16 16 12 15 15 7 6 9 12
37 46 51 55 52 50 45 46 39 35 31 28 27 25 24 36 36 20 22 22 20 21 24 23 24 26 26 27 23 22 17 16 20 25 24 22 23 18 15 14 13 3 2 6 10
37 39 49 56 54 52 52 43 44 33 31 29 28 26 31 46 24 18 14 21 22 23 23 23 25 22 25 26 26 23 25 25 24 27 25 23 22 18 16 14 9 2 3 5 8
38 39 41 47 50 50 48 48 44 36 29 30 28 28 33 37 22 19 13 22 21 23 23 22 21 23 20 22 24 21 24 30 30 25 27 24 25 23 16 13 11 8 5 4 5
39 37 42 48 52 50 51 50 42 36 32 30 30 27 38 23 18 18 17 19 21 22 21 17 18 19 21 19 22 26 24 25 29 23 23 22 33 23 15 12 18 10 7 6 8
38 39 39 45 50 50 54 46 41 36 32 30 30 32 36 23 24 20 21 16 17 17 19 19 19 24 23 24 25 26 24 25 30 23 22 22 28 25 17 15 20 15 11 9 9
36 36 35 48 53 52 46 41 39 31 32 33 31 33 28 36 23 19 20 15 16 14 17 23 23 30 31 30 29 28 27 27 23 22 22 25 29 25 24 20 22 21 16 14 12
35 37 36 46 53 48 40 43 41 39 40 36 33 32 30 23 21 23 20 17 16 20 29 24 33 39 35 31 27 24 30 30 25 24 25 24 32 32 28 26 24 23 19 19 18
34 36 41 36 52 48 47 50 46 38 43 32 26 27 24 25 26 23 22 24 26 30 25 28 42 32 26 25 29 29 30 32 33 34 30 34 38 35 34 34 27 28 27 23 22
34 34 37 42 43 44 48 50 38 35 31 26 27 31 28 27 28 27 26 22 29 30 31 36 28 23 25 30 34 33 33 30 32 29 30 34 43 38 36 37 32 31 31 29 24
33 32 35 37 50 47 53 48 38 35 30 36 30 30 30 24 27 28 27 22 25 31 29 30 25 25 29 33 30 38 28 25 28 31 35 27 38 28 32 42 39 29 29 32 29
32 36 34 34 40 49 50 44 39 36 48 27 29 26 32 31 27 30 27 23 28 25 25 34 29 28 31 32 24 32 23 28 29 31 35 33 34 35 30 37 39 32 28 34 31
30 30 30 32 31 42 44 41 39 41 42 27 30 33 31 26 26 28 26 21 19 19 25 27 22 24 29 22 20 17 21 23 27 30 40 34 32 38 32 38 36 36 32 33 34
30 31 30 27 42 43 45 48 45 45 25 30 37 35 29 28 27 32 31 30 30 34 35 30 26 24 20 22 20 22 27 33 37 37 42 32 32 42 30 31 30 31 29 36 35
29 30 33 39 38 42 48 48 51 37 33 29 35 31 31 28 30 31 31 34 29 26 29 35 39 27 19 22 27 26 28 36 40 42 43 33 38 40 31 30 27 26 32 32 38
29 33 33 44 40 41 53 56 40 39 32 33 33 39 37 33 30 28 32 35 30 27 31 33 36 22 23 20 20 25 35 20 33 33 38 38 41 43 33 28 29 31 27 30 36
30 31 37 44 42 46 49 45 37 37 32 35 35 31 36 34 31 32 31 31 29 26 24 23 31 25 26 24 27 25 22 33 33 43 45 42 42 42 31 36 26 26 28 33 30
26 33 33 43 42 48 49 38 35 32 35 34 33 31 35 34 28 29 28 23 29 27 25 20 23 24 21 28 27 26 28 25 27 32 40 45 41 29 28 26 28 26 29 29 34
26 36 28 42 48 46 52 36 32 34 33 29 31 29 30 29 26 29 28 30 28 27 27 26 21 25 26 28 31 32 31 28 36 39 37 38 47 23 21 24 27 26 26 29 28
29 32 27 33 54 52 36 40 36 36 33 32 32 29 26 29 31 31 31 25 16 25 26 23 24 26 26 29 28 29 30 32 32 30 38 41 48 29 33 27 27 27 26 27 28
25 32 30 34 43 51 45 40 40 36 31 29 28 25 27 30 27 32 27 24 19 20 21 20 25 31 34 32 26 34 34 36 37 39 38 40 38 33 34 36 34 31 30 29 30
23 28 26 39 48 49 45 42 42 40 33 30 32 34 30 30 30 29 27 24 22 21 22 23 29 28 28 28 27 29 30 31 34 37 36 33 47 49 51 53 48 36 33 33 31
25 28 24 31 43 48 44 50 44 40 35 37 34 32 31 28 27 22 21 23 24 22 22 23 28 28 31 27 29 34 32 32 35 38 42 48 54 40 35 37 41 47 47 42 37
21 21 25 30 44 50 51 49 49 40 34 32 25 29 32 29 24 21 20 18 17 21 23 23 25 26 38 26 26 40 39 32 36 37 41 44 57 38 42 42 43 43 40 41 39
Wind_Direction
247 246 246 244 249 243 238 237 237 237 238 241 240 238 241 247 250 249 245 252 253 257 251 249 256 262 262 258 263 286 264 261 274 274 281 287 284 298 315 336 332 336 347 311 91
244 242 243 240 242 248 237 235 234 233 235 237 235 234 237 244 249 246 251 250 251 256 248 245 246 251 256 257 261 269 263 263 280 271 279 285 286 294 296 311 308 326 319 35 101
245 239 241 243 242 242 238 232 231 229 232 232 229 228 231 242 248 248 245 250 249 245 252 246 247 248 251 256 259 267 263 275 277 277 275 282 285 293 291 286 296 359 48 98 113
251 239 237 234 234 239 245 228 226 227 226 227 221 220 222 235 239 252 244 240 243 244 246 244 244 241 246 254 258 266 269 275 273 284 283 280 289 281 283 285 297 317 93 113 128
253 241 237 231 232 238 244 224 223 221 221 218 214 210 223 234 238 265 243 230 238 240 238 240 240 244 246 250 257 263 265 268 277 283 284 283 278 277 277 289 298 328 110 131 138
250 245 238 227 229 233 234 219 220 213 216 210 206 208 226 232 246 259 237 229 235 237 238 240 244 250 249 250 253 261 261 265 275 280 285 281 278 277 282 278 289 266 158 159 153
249 248 244 232 229 230 234 219 216 212 203 204 201 212 229 233 243 235 241 234 236 239 237 245 245 245 255 249 254 263 262 261 265 280 278 279 271 269 282 273 273 267 257 206 212
248 251 245 238 229 229 228 214 212 207 203 198 198 221 235 234 240 231 231 236 242 241 240 242 243 247 255 257 259 256 265 267 264 277 280 279 263 270 274 270 265 264 251 216 241
249 251 253 242 230 226 222 208 206 203 199 196 208 228 230 226 232 232 226 226 236 236 240 241 247 246 250 245 254 255 261 263 268 274 276 274 272 270 271 266 265 265 258 242 242
252 253 255 234 221 221 216 201 202 196 196 206 222 227 236 224 221 222 223 211 230 213 233 237 244 241 242 240 244 253 253 262 270 268 273 273 270 276 267 265 264 263 261 256 248
253 254 251 234 215 217 196 198 198 206 198 211 213 223 218 213 213 221 205 210 221 230 234 236 237 237 239 242 257 254 255 258 266 274 273 279 272 270 268 266 264 262 259 257 256
253 252 241 240 216 219 204 202 199 195 190 219 210 223 217 202 214 211 197 221 224 228 232 237 239 243 242 244 252 252 255 260 264 265 274 274 271 271 265 261 264 259 259 258 258
254 251 241 238 221 208 201 201 195 184 202 209 214 213 204 203 211 206 202 225 224 231 233 238 250 239 243 245 247 255 254 260 263 269 273 275 272 270 265 261 263 261 260 259 257
246 238 239 241 217 206 202 197 190 196 207 218 217 217 215 205 217 211 214 223 232 231 234 247 250 244 241 247 248 251 259 263 266 267 270 270 274 270 268 260 259 257 258 258 258
241 235 233 236 208 198 195 193 188 200 216 211 212 214 215 210 197 209 221 234 223 231 235 242 242 240 244 247 247 258 260 261 267 267 273 268 272 271 270 266 262 258 253 257 259
241 241 239 234 202 198 191 185 192 210 223 215 213 204 201 209 212 208 221 232 230 229 242 250 257 247 248 251 242 251 262 269 273 267 266 265 265 271 269 269 271 265 257 256 258
240 238 232 229 209 199 188 187 195 212 207 210 202 199 200 209 212 205 214 220 228 230 237 247 247 257 253 247 243 248 249 261 261 262 263 271 264 266 281 278 277 270 261 258 259
240 237 226 223 210 184 192 195 211 214 211 207 194 191 206 199 214 212 215 224 233 235 238 242 245 242 243 248 250 242 253 257 261 262 266 270 265 274 277 271 286 286 273 267 261
240 228 233 215 221 187 191 201 211 202 205 196 191 203 215 217 218 215 222 229 229 229 240 242 247 248 247 250 246 247 254 261 262 272 270 268 272 273 280 282 279 275 285 276 266
231 228 227 209 198 191 198 209 216 208 198 183 202 213 209 207 215 217 219 233 233 231 245 248 250 254 245 251 253 255 248 257 263 261 265 269 271 268 280 276 281 281 281 277 277
228 220 223 215 198 199 207 212 211 202 189 203 209 214 216 208 224 217 214 245 229 227 242 242 256 260 243 247 243 251 249 262 266 264 265 268 271 282 282 284 284 286 284 287 281
225 220 228 208 203 206 209 208 207 198 210 217 217 221 205 203 223 222 226 240 227 222 230 243 256 253 249 261 251 253 255 249 259 261 264 271 268 287 294 295 290 294 292 292 295
225 224 232 221 206 202 206 209 210 199 208 214 216 223 211 211 225 231 233 237 219 216 221 235 252 252 256 263 260 253 253 252 259 269 262 265 269 276 278 289 293 293 301 303 304
229 219 222 221 213 203 201 204 206 212 215 218 216 211 209 216 236 230 233 239 228 231 229 232 253 253 253 263 260 257 252 252 253 261 262 260 264 271 274 281 283 291 297 306 307
232 224 228 216 209 204 206 205 199 208 219 215 219 214 216 226 231 236 233 232 233 231 234 243 252 257 262 264 261 261 253 251 250 255 259 244 269 268 268 267 274 286 293 298 302
229 229 236 230 212 202 204 207 197 208 213 215 216 211 221 225 226 224 224 228 227 230 231 250 261 259 260 267 263 262 258 254 255 259 263 267 267 274 280 281 279 280 279 287 289
240 244 239 228 209 203 209 207 209 208 223 219 209 214 225 230 229 232 229 228 233 220 225 240 251 259 258 267 270 265 257 258 262 259 264 267 246 279 277 279 280 283 285 282 282